Regional Weather Roundup
Issued by NWS

Home | Current Version | Previous Version | Graphics & Text | Print | Product List | Glossary On
Versions: 1 2 3 4 5 6 7 8 9 10 11 12 13 14 15 16 17 18 19 20 21 22 23 24 25 26 27 28 29 30 31 32 33 34 35 36 37 38 39 40 41 42 43 44 45 46 47 48 49 50
000
ASUS43 KIND 191609
RWRIN

WEATHER ROUNDUP FOR INDIANA
NATIONAL WEATHER SERVICE INDIANAPOLIS IN
1200 PM EDT FRI SEP 19 2014

NOTE: "FAIR" INDICATES FEW OR NO CLOUDS BELOW 12,000 FEET WITH NO
SIGNIFICANT WEATHER AND/OR OBSTRUCTIONS TO VISIBILITY.

* - STATION DOES NOT REPORT WEATHER SUCH AS PRECIPITATION OR FOG.

+ - STATION NOT QUALITY CONTROLLED BY THE NATIONAL WEATHER SERVICE.
    USE DATA WITH CAUTION...ESPECIALLY DEWPOINT AND RELATIVE
    HUMIDITY OBSERVATIONS.

INZ001>003-010>013-019-020-191700-
NORTHWEST INDIANA

CITY           SKY/WX    TMP DP  RH WIND       PRES   REMARKS
GARY /AIRPORT/ MOSUNNY   68  52  56 SE7       30.17F
KNOX *+        SUNNY     66  52  60 SE8       30.18F
LA PORTE +     SUNNY     64  52  65 SE8       30.19F
MICHIGAN CITY+ SUNNY     64  52  63 SE6       30.18F
MONTICELLO +   SUNNY     66  54  63 SE3       30.18F
RENSSELAER +   SUNNY     68  54  60 SE7       30.18F
VALPARAISO     SUNNY     66  52  60 S10       30.18F

$$

LMZ046-743>745-191700-
SOUTHERN LAKE MICHIGAN

STATION/POSITION TIME  TEMP WIND        PRES
                       AIR  DIR/SP/G
                 (UTC) (F)  (DEG/KT/KT) (MB)
MICHIGAN CITY    1600   63  140/ 13/ 17   N/A

$$

INZ004-005-014>016-021>024-191700-
NORTH CENTRAL INDIANA

CITY           SKY/WX    TMP DP  RH WIND       PRES   REMARKS
ELKHART        SUNNY     64  54  68 SE9       30.20F
GOSHEN         SUNNY     66  54  65 SE12      30.20F
LOGANSPORT +   SUNNY     64  52  63 SE9       30.20F
PERU/GRISSOM   SUNNY     66  56  71 VRB7      30.20F
ROCHESTER +    SUNNY     66  54  63 SE9       30.20F
SOUTH BEND     SUNNY     66  52  60 SE12      30.20F
WARSAW +       SUNNY     63  52  67 SE7       30.21F

$$

INZ006>009-017-018-025>027-191700-
NORTHEAST INDIANA

CITY           SKY/WX    TMP DP  RH WIND       PRES   REMARKS
ANGOLA *+      SUNNY     63  54  72 SE9       30.22F
AUBURN +       SUNNY     63  50  63 E8        30.24F
FORT WAYNE     MOSUNNY   63  53  70 SE9       30.23F
HUNTINGTON +   SUNNY     63  53  71 SE6       30.22F

$$

INZ028-029-035-036-043>045-051>053-191700-
WEST CENTRAL INDIANA

CITY           SKY/WX    TMP DP  RH WIND       PRES   REMARKS
GREENCASTLE +  SUNNY     66  50  55 SE10      30.19S
LAFAYETTE      SUNNY     67  53  61 SE7       30.18S
TERRE HAUTE    SUNNY     69  50  50 SE12      30.17R

$$

INZ030>032-037>040-046>048-054>057-064-065-191700-
CENTRAL INDIANA

CITY           SKY/WX    TMP DP  RH WIND       PRES   REMARKS
ANDERSON       SUNNY     68  48  49 SE12      30.21F
CP ATTERBURY + SUNNY     68  50  52 SE9       30.19S
FRANKFORT +    SUNNY     70  51  50 SE8       30.20S
GREENWOOD *+   SUNNY     70  52  52 E12       30.20
INDIANAPOLIS   MOSUNNY   68  49  50 E13       30.18S
-EAGLE CREEK   SUNNY     68  48  48 E12       30.19S
KOKOMO *+      SUNNY     66  52  59 SE12      30.20F
MARION +       SUNNY     65  50  57 SE12      30.21F
MT COMFORT *+  SUNNY     68  41  37 SE8G17    30.20F
SHELBYVILLE    SUNNY     71  50  47 E12       30.19R
ZIONSVILLE +   SUNNY     67  50  53 SE8       30.20F

$$

INZ033-034-041-042-049-050-058-059-191700-
EAST CENTRAL INDIANA

CITY           SKY/WX    TMP DP  RH WIND       PRES   REMARKS
MUNCIE         SUNNY     67  50  54 E10       30.21S

$$

INZ060-061-067>069-081>083-085>088-191700-
SOUTHWEST INDIANA

CITY           SKY/WX    TMP DP  RH WIND       PRES   REMARKS
EVANSVILLE     SUNNY     71  53  52 E8        30.13S
WASHINGTON +   SUNNY     71  53  51 SE13      30.14F

$$

INZ062-063-066-070>080-084-089>092-191700-
SOUTH CENTRAL AND SOUTHEAST INDIANA

CITY           SKY/WX    TMP DP  RH WIND       PRES   REMARKS
BEDFORD +      SUNNY     68  46  45 SE12      30.16F
BLOOMINGTON    SUNNY     68  49  50 SE12      30.17S
NORTH VERNON + SUNNY     70  46  43 E8        30.18S

$$




USA.gov is the U.S. government's official web portal to all federal, state and local government web resources and services.